Location: Beddau
(51.5575°N, 3.3561°W)
Time: 03:03:38
(UTC+00:00)

USA 307 - Pass Details

Date: 03 March 2021
Orbit: 567 x 577 km, 54.0° (Epoch: 13 April)

Event Time Altitude Azimuth Distance (km) Brightness Sun altitude
Rises 19:54:25 0° 279° (W) 2,785 8.1 -18.8°
Reaches altitude 10° 19:56:42 10° 282° (WNW) 1,885 6.8 -19.2°
Maximum altitude 20:00:58 62° 4° (N) 646 3.1 -19.8°
Enters shadow 20:02:01 45° 61° (ENE) 782 3.2 -20.0°
